Content
SEND FEEDBACK

Daily
Averages
Monthly
Summary
Turkmenistan

ASHGABAT, TURKMENISTAN


Home > Asia > Turkmenistan
Elevation: 775 feet     Latitude: 37 58N     Longitude: 058 20E

WEATHER
 
SELECT A DAY
Number of Records: 177,527;   Date Range: 3/15/97 - 9/16/14
 
SHARE

PRINT THIS DATA

[ ← Previous Day ]
WEATHER ALMANAC - MAY 6, 2013
[ Next Day → ]
[ °C ]   °F
Weather ElementAverageHighLow
Temperature73.2 °F89.6 °F (5:00 pm)56 °F (5:00 am)
Dewpoint25.7 °F42 °F (2:00 am)8.6 °F (3:00 pm)
Humidity19.7 %43 % (5:00 am)5 % (3:00 pm)
Barometer29.95 in30.03 in (2:00 am)29.86 in (8:00 pm)
Wind Speed5.6 mph11.2 mph (11:00 am)
Wind Gust17.9 mph (9:30 pm)
Weather ElementAverage
Visibility6.2 mi
Wind DirectionESE (116.2 °)

Weather ElementTotal
Precipitation---
Cooling Degree Days7.8 (Base 65)
Growing Degree Days22.8 (Base 50)
Averaged from 36 records on May 6, 2013
WEATHER CONDITIONS BREAKOUT
WIND DIRECTION BREAKOUT
WEATHER BY HOUR - MAY 6, 2013
[ °C ]   °F
Local TimeTemperatureDewpointHumidityBarometerVisibilityWind DirectionWind SpeedGust SpeedPrecipitationEventsConditions
1:00 AM62.6 °F33.8 °F34 %30.01 in6.2 miSouth (170°)4.5 mphClear
2:00 AM60.0 °F42.0 °F39 %30.03 in6.0 miESE (110°)6.7 mph
2:00 AM60.8 °F33.8 °F36 %30.01 in6.2 miESE (110°)6.7 mphClear
3:00 AM59.0 °F33.8 °F39 %30.01 in6.2 miSouth (190°)4.5 mphClear
4:00 AM57.2 °F32.0 °F38 %29.98 in6.2 miVariable2.2 mphClear
5:00 AM56.0 °F40.0 °F43 %30.01 in6.0 miSouth (190°)4.5 mph
5:00 AM57.2 °F33.8 °F41 %29.98 in6.2 miSouth (190°)4.5 mphClear
5:30 AM59.0 °F32.0 °F36 %29.98 in6.2 miSW (230°)2.2 mphClear
6:00 AM57.2 °F30.2 °F36 %29.98 in6.2 miVariable2.2 mphClear
6:30 AM57.2 °F28.4 °F33 %29.98 in6.2 miSouth (180°)4.5 mphClear
7:00 AM59.0 °F30.2 °F34 %29.98 in6.2 miVariable2.2 mphClear
7:30 AM62.6 °F30.2 °F30 %29.98 in6.2 miSouth (170°)4.5 mphClear
8:00 AM64.0 °F38.0 °F27 %30.00 in6.0 miCalm
8:00 AM69.8 °F30.2 °F23 %30.01 in6.2 miVariable2.2 mphClear
8:30 AM73.4 °F26.6 °F18 %29.98 in6.2 miCalmClear
9:00 AM77.0 °F19.4 °F12 %30.01 in6.2 miSE (130°)4.5 mphClear
10:00 AM80.6 °F23.0 °F12 %29.98 in6.2 miNE (50°)6.7 mphClear
11:00 AM84.2 °F19.4 °F9 %29.98 in6.2 miEast (90°)11.2 mphClear
11:00 AM82.0 °F32.0 °F8 %29.98 in6.0 miEast (90°)11.2 mph
12:00 PM84.2 °F10.4 °F6 %29.98 in6.2 miEast (100°)8.9 mphClear
1:00 PM86.0 °F14.0 °F7 %29.95 in6.2 miEast (100°)8.9 mphClear
2:00 PM86.0 °F28.0 °F6 %29.93 in6.0 miEast (90°)11.2 mph
2:00 PM87.8 °F12.2 °F6 %29.95 in6.2 miENE (70°)11.2 mphClear
3:00 PM87.8 °F8.6 °F5 %29.92 in6.2 miESE (110°)8.9 mphPartly Cloudy
4:00 PM87.8 °F14.0 °F6 %29.92 in6.2 miSE (130°)8.9 mphPartly Cloudy
5:00 PM87.0 °F35.0 °F8 %29.88 in6.0 miSouth (170°)4.5 mphClear
5:00 PM89.6 °F8.6 °F5 %29.89 in6.2 miSE (140°)6.7 mphScattered Clouds
6:00 PM87.8 °F10.4 °F6 %29.89 in6.2 miENE (70°)6.7 mphScattered Clouds
7:00 PM86.0 °F12.2 °F6 %29.89 in6.2 miSE (130°)4.5 mphScattered Clouds
8:00 PM80.0 °F38.0 °F13 %29.86 in6.0 miSSE (160°)6.7 mphClear
8:00 PM80.6 °F19.4 °F10 %29.89 in6.2 miSSE (160°)6.7 mphScattered Clouds
9:00 PM75.2 °F23.0 °F14 %29.92 in6.2 miSSW (200°)6.7 mphPartly Cloudy
9:30 PM73.4 °F23.0 °F15 %29.92 in6.2 miSSW (210°)6.7 mph17.9 mphPartly Cloudy
10:00 PM73.4 °F21.2 °F14 %29.92 in6.2 miSSW (210°)6.7 mphClear
11:00 PM71.0 °F38.0 °F19 %29.88 in6.0 miCalm
11:00 PM71.6 °F21.2 °F15 %29.89 in6.2 miVariable2.2 mphClear
Hourly data recorded from UTAA, located miles away from Ashgabat, Turkmenistan







STORIES FROM OUR PARTNERS